Location: Gad�tanya
(48.0500°N, 20.8500°E)
Time: 11:56:50
(UTC+00:00)

ATLAS CENTAUR R/B - Pass Details

Date: 05 July 2020
Orbit: 475 x 672 km, 64.7° (Epoch: 13 July)

Event Time Altitude Azimuth Distance (km) Brightness Sun altitude
Rises 21:53:39 0° 302° (WNW) 2,548 5.4 -18.5°
Reaches altitude 10° 21:57:22 10° 263° (W) 1,647 3.8 -18.6°
Maximum altitude 21:58:13 11° 250° (WSW) 1,602 3.6 -18.6°
Enters shadow 21:58:26 11° 246° (WSW) 1,604 3.5 -18.6°
